Home > Weather > Gorleben > Past weeks

Flag for Germany Past Weather in Gorleben, Lower Saxony, Germany — Yesterday and Last 2 Weeks

Now
66 °F

Partly sunny.


Feels Like: 66 °F
Forecast: 58 / 75 °F
Wind: 3 mph from Southwest

Location: Mecklenburg-Vorpommern - Parchim

Current Time: Jun 30, 2016 at 9:36:30 PM

Latest Report: Jun 30, 2016 at 6:50 PM


Visibility: N/A

Pressure: 29.92 "Hg

Humidity: 83%

Dew Point: 61 °F

Location of GorlebenLocation

Past Weather in Gorleben — Graph

°F

Gorleben Temperature Yesterday

Maximum temperature yesterday: 72 °F (at 1:50 PM)
Minimum temperature yesterday: 55 °F (at 6:20 AM)
Average temperature yesterday: 64 °F

High & Low Weather Summary for the Past Weeks

 TemperatureHumidityPressure
High91 °F (Jun 24, 3:50 PM)100% (Jun 16, 6:20 AM)30.21 "Hg (Jun 16, 6:20 AM)
Low46 °F (Jun 20, 6:20 AM)36% (Jun 23, 4:20 PM)29.53 "Hg (Jun 15, 6:20 PM)
Average68 °F68%29.95 "Hg
* Reported Jun 15 6:20 PM — Jun 30 6:50 PM, Gorleben, Weather by CustomWeather, © 2016

Note: Actual official high and low records may vary slightly from our data, if they occured in-between our weather recording intervals... More about our weather records

Advertising

Gorleben Weather History for the Previous 24 Hours

Scroll right to see more
 ConditionsComfort  
Time TempWeatherWind HumidityBarometerVisibility
6:50 PM
Thu, Jun 30
66 °FPartly sunny.3 mph83%29.92 "HgN/A
6:20 PM66 °FBroken clouds.3 mph83%29.89 "HgN/A
5:50 PM64 °FScattered showers. Broken clouds.9 mph83%29.89 "HgN/A
5:20 PM70 °FScattered showers. Partly sunny.13 mph60%29.89 "HgN/A
4:50 PM72 °FBroken clouds.13 mph57%29.89 "HgN/A
4:20 PM70 °FPartly sunny.14 mph60%29.89 "HgN/A
3:50 PM70 °FPartly sunny.13 mph60%29.89 "HgN/A
3:20 PM70 °FBroken clouds.12 mph60%29.89 "HgN/A
2:50 PM70 °FPartly sunny.13 mph64%29.89 "HgN/A
2:20 PM70 °FBroken clouds.14 mph64%29.89 "HgN/A
1:50 PM68 °FPartly sunny.12 mph69%29.89 "HgN/A
1:20 PM68 °FPartly sunny.9 mph64%29.89 "HgN/A
12:50 PM68 °FPartly sunny.12 mph64%29.86 "HgN/A
12:20 PM70 °FPartly sunny.12 mph64%29.86 "HgN/A
11:50 AM68 °FPassing clouds.12 mph64%29.86 "HgN/A
11:20 AM68 °FSunny.15 mph64%29.86 "Hg10 mi
10:50 AM66 °FPassing clouds.13 mph68%29.86 "HgN/A
10:20 AM66 °FPassing clouds.12 mph60%29.86 "HgN/A
9:50 AM66 °FSunny.12 mph60%29.86 "Hg10 mi
9:20 AM64 °FSunny.9 mph64%29.86 "Hg10 mi
8:50 AM64 °FSunny.12 mph64%29.86 "Hg10 mi
8:20 AM63 °FSunny.10 mph68%29.86 "Hg10 mi
7:50 AM63 °FSunny.12 mph68%29.86 "Hg10 mi
7:20 AM61 °FSunny.10 mph72%29.89 "Hg10 mi
6:50 AM61 °FSunny.6 mph72%29.89 "Hg10 mi
6:20 AM61 °FSunny.5 mph72%29.89 "Hg10 mi
Weather by CustomWeather, © 2016

See weather overviewHow to use our weather pages